Weather History for Loreto, B. C. S., Mexico

Change the Weather History Date:

Thursday, February 20, 2014

  Actual Average Record
Temperature  
Mean Temperature 66 °F -  
Max Temperature 78 °F 74 °F - ()
Min Temperature 55 °F 62 °F - ()
Cooling Degree Days 2    
Growing Degree Days 16 (Base 50)    
Moisture  
Dew Point 55 °F    
Average Humidity 55    
Maximum Humidity 73    
Minimum Humidity 23    
Precipitation  
Precipitation 0.00 in - - ()
Sea Level Pressure  
Sea Level Pressure 29.92 in    
Wind  
Wind Speed 5 mph ()    
Max Wind Speed 17 mph    
Max Gust Speed -    
Visibility 9.3 miles    
Events      
T = Trace of Precipitation, MM = Missing Value Source: Averaged Metar Reports

Daily Weather History Graph

Daily Weather History Graph

Search for Another Location

Airport:

Trip Planner

Search our weather history database for the weather conditions in past years. The results will help you decide how hot, cold, wet, or windy it might be!

Date:

Astronomy

Feb. 20, 2014 Rise Set
Actual Time 6:56 AM MST 6:21 PM MST
Civil Twilight 6:33 AM MST 6:45 PM MST
Nautical Twilight 6:06 AM MST 7:12 PM MST
Astronomical Twilight 5:39 AM MST 7:38 PM MST
Moon 11:42 PM MST (2/20) 10:16 AM MST (2/20)
Length of Visible Light 12h 11m
Length of Day
11h 25m
Waning Gibbous, 70% of the Moon is Illuminated
Feb 20
Waning Gibbous
Feb 22
Last Quarter
Mar 1
New
Mar 8
First Quarter
Mar 16
Full

Hourly Weather History & Observations

Time (MST) Temp. Dew Point Humidity Pressure Visibility Wind Dir Wind Speed Gust Speed Precip Events Conditions
4:45 AM 60 °F 32 °F 23% 29.84 in 12 mi SSW 2.2 mph - -  
6:51 AM 66.2 °F 53.6 °F 64% 29.90 in 8.0 mi Calm Calm - N/A   Scattered Clouds
7:44 AM 64.4 °F 51.8 °F 64% 29.91 in 8.0 mi WNW 8.1 mph - N/A   Scattered Clouds
7:45 AM 56 °F 42 °F 47% 29.91 in 12 mi SW 2.2 mph - -   Clear
8:42 AM 69.8 °F 51.8 °F 53% 29.94 in 8.0 mi Calm Calm - N/A   Mostly Cloudy
9:42 AM 75.2 °F 51.8 °F 44% 29.94 in 8.0 mi Calm Calm - N/A   Mostly Cloudy
10:43 AM 73.4 °F 53.6 °F 50% 29.95 in 8.0 mi East 5.8 mph - N/A   Mostly Cloudy
10:45 AM 77 °F 46 °F 23% 29.95 in 12 mi ENE 2.2 mph - -   Clear
11:42 AM 73.4 °F 59.0 °F 61% 29.96 in 8.0 mi NE 11.5 mph - N/A   Mostly Cloudy
12:42 PM 75.2 °F 62.6 °F 65% 29.95 in 8.0 mi NE 9.2 mph - N/A   Mostly Cloudy
1:45 PM 77 °F 58 °F 41% 29.92 in 12 mi ENE 6.7 mph - -   Clear
1:50 PM 75.2 °F 59.0 °F 57% 29.92 in 8.0 mi NE 17.3 mph - N/A   Partly Cloudy
2:44 PM 71.6 °F 59.0 °F 64% 29.90 in 8.0 mi NE 17.3 mph - N/A   Scattered Clouds
3:42 PM 71.6 °F 60.8 °F 69% 29.89 in 8.0 mi NE 17.3 mph - N/A   Scattered Clouds
4:48 PM 69.8 °F 59.0 °F 68% 29.90 in 8.0 mi NE 11.5 mph - N/A   Scattered Clouds
4:50 PM 75 °F 59 °F 48% 29.95 in 12 mi ENE 6.7 mph - -   Clear
5:47 PM 69.8 °F 60.8 °F 73% 29.91 in 8.0 mi ENE 8.1 mph - N/A   Scattered Clouds
6:42 PM 69.8 °F 60.8 °F 73% 29.90 in 8.0 mi Calm Calm - N/A   Scattered Clouds
7:45 PM 69 °F 58 °F 59% 29.93 in 12 mi Calm Calm - -   Clear